When you browse on this site, cookies collect data to enhance your experience and personalize the content and advertising you see.
Visit our Privacy Policy to learn more. By continuing to use the site, you agree to this use of cookies and data.
  • în România
  • Lista ţărilor
  • Pe 7 zile
  • Temperatura apei
  • Hartă satelitară
  • Meteo pe hartă
  • Widget-uri
  • user-avatar
    Intrare

    Meteo pe oră la Arriate

    Astăzi, 22 Februarie, Vineri

    Timp Temperatura Precipitaţii Vânt Presiune Umiditate
    00:00 +5°C° 0 mm 2 m/s 699 mmHg 82%
    01:00 +5°C° 0 mm 2 m/s 699 mmHg 82%
    02:00 +5°C° 0 mm 2 m/s 699 mmHg 82%
    03:00 +4°C° 0 mm 2 m/s 699 mmHg 82%
    04:00 +4°C° 0 mm 2 m/s 699 mmHg 81%
    05:00 +4°C° 0 mm 2 m/s 699 mmHg 81%
    06:00 +4°C° 0 mm 2 m/s 699 mmHg 80%
    07:00 +6°C° 0 mm 2 m/s 699 mmHg 75%
    08:00 +7°C° 0 mm 2 m/s 700 mmHg 70%
    09:00 +9°C° 0 mm 2 m/s 700 mmHg 64%
    10:00 +12°C° 0 mm 2 m/s 701 mmHg 58%
    11:00 +14°C° 0 mm 2 m/s 701 mmHg 51%
    12:00 +14°C° 0 mm 3 m/s 701 mmHg 44%
    13:00 +16°C° 0 mm 2 m/s 701 mmHg 43%
    14:00 +16°C° 0 mm 2 m/s 701 mmHg 42%
    15:00 +17°C° 0 mm 2 m/s 701 mmHg 41%
    16:00 +15°C° 0 mm 2 m/s 700 mmHg 48%
    17:00 +13°C° 0 mm 1 m/s 700 mmHg 55%
    18:00 +11°C° 0 mm 1 m/s 699 mmHg 61%
    19:00 +10°C° 0 mm 1 m/s 699 mmHg 62%
    20:00 +9°C° 0 mm 1 m/s 700 mmHg 64%
    21:00 +8°C° 0 mm 1 m/s 700 mmHg 65%
    22:00 +8°C° 0 mm 1 m/s 700 mmHg 61%
    23:00 +8°C° 0 mm 1 m/s 700 mmHg 58%

    Mâine, 23 Februarie, Sâmbătă

    Timp Temperatura Precipitaţii Vânt Presiune Umiditate
    00:00 +8°C° 0 mm 1 m/s 700 mmHg 55%
    01:00 +8°C° 0 mm 1 m/s 699 mmHg 53%
    02:00 +8°C° 0 mm 1 m/s 699 mmHg 51%
    03:00 +8°C° 0 mm 1 m/s 699 mmHg 50%
    04:00 +8°C° 0 mm 1 m/s 699 mmHg 48%
    05:00 +7°C° 0 mm 1 m/s 699 mmHg 46%
    06:00 +7°C° 0 mm 1 m/s 699 mmHg 44%
    07:00 +9°C° 0 mm 1 m/s 699 mmHg 44%
    08:00 +11°C° 0 mm 1 m/s 700 mmHg 44%
    09:00 +13°C° 0 mm 1 m/s 701 mmHg 44%
    10:00 +14°C° 0 mm 1 m/s 701 mmHg 40%
    11:00 +16°C° 0 mm 1 m/s 701 mmHg 36%
    12:00 +19°C° 0 mm 1 m/s 701 mmHg 33%
    13:00 +19°C° 0 mm 1 m/s 701 mmHg 33%
    14:00 +20°C° 0 mm 1 m/s 701 mmHg 33%
    15:00 +20°C° 0 mm 1 m/s 700 mmHg 34%
    16:00 +18°C° 0 mm 1 m/s 700 mmHg 41%
    17:00 +15°C° 0 mm 1 m/s 699 mmHg 48%
    18:00 +13°C° 0 mm 1 m/s 699 mmHg 55%
    19:00 +12°C° 0 mm 1 m/s 699 mmHg 56%
    20:00 +11°C° 0 mm 1 m/s 699 mmHg 56%
    21:00 +11°C° 0 mm 1 m/s 699 mmHg 56%
    22:00 +10°C° 0 mm 1 m/s 699 mmHg 55%
    23:00 +10°C° 0 mm 1 m/s 699 mmHg 53%

    Poimâine, 24 Februarie, Duminică

    Timp Temperatura Precipitaţii Vânt Presiune Umiditate
    00:00 +10°C° 0 mm 1 m/s 699 mmHg 51%
    01:00 +9°C° 0 mm 1 m/s 698 mmHg 50%
    02:00 +9°C° 0 mm 1 m/s 698 mmHg 50%
    03:00 +9°C° 0 mm 1 m/s 698 mmHg 49%
    04:00 +9°C° 0 mm 1 m/s 698 mmHg 48%
    05:00 +8°C° 0 mm 1 m/s 698 mmHg 47%
    06:00 +8°C° 0 mm 1 m/s 698 mmHg 47%
    07:00 +10°C° 0 mm 1 m/s 698 mmHg 47%
    08:00 +11°C° 0 mm 1 m/s 699 mmHg 47%
    09:00 +13°C° 0 mm 1 m/s 700 mmHg 47%
    10:00 +15°C° 0 mm 2 m/s 700 mmHg 42%
    11:00 +16°C° 0 mm 2 m/s 700 mmHg 38%
    12:00 +18°C° 0 mm 2 m/s 701 mmHg 33%
    13:00 +18°C° 0 mm 2 m/s 700 mmHg 34%
    14:00 +18°C° 0 mm 2 m/s 700 mmHg 34%
    15:00 +18°C° 0 mm 2 m/s 699 mmHg 35%
    16:00 +15°C° 0 mm 2 m/s 699 mmHg 43%
    17:00 +13°C° 0 mm 2 m/s 699 mmHg 51%
    18:00 +10°C° 0 mm 2 m/s 698 mmHg 60%
    19:00 +9°C° 0 mm 2 m/s 698 mmHg 63%
    20:00 +8°C° 0 mm 2 m/s 699 mmHg 67%
    21:00 +7°C° 0 mm 2 m/s 699 mmHg 70%
    22:00 +7°C° 0 mm 2 m/s 699 mmHg 72%
    23:00 +6°C° 0 mm 2 m/s 699 mmHg 73%

    25 Februarie, Luni

    Timp Temperatura Precipitaţii Vânt Presiune Umiditate
    00:00 +6°C° 0 mm 2 m/s 699 mmHg 75%
    01:00 +6°C° 0 mm 2 m/s 699 mmHg 78%
    02:00 +6°C° 0 mm 2 m/s 699 mmHg 81%
    03:00 +5°C° 0 mm 2 m/s 698 mmHg 84%
    04:00 +4°C° 0 mm 3 m/s 698 mmHg 86%
    05:00 +4°C° 0 mm 3 m/s 698 mmHg 89%
    06:00 +4°C° 0 mm 3 m/s 698 mmHg 91%
    07:00 +5°C° 0 mm 3 m/s 699 mmHg 88%
    08:00 +8°C° 0 mm 3 m/s 699 mmHg 84%
    09:00 +8°C° 0 mm 4 m/s 700 mmHg 80%
    10:00 +10°C° 0 mm 4 m/s 700 mmHg 72%
    11:00 +12°C° 0 mm 4 m/s 700 mmHg 65%
    12:00 +13°C° 0 mm 4 m/s 700 mmHg 58%
    13:00 +13°C° 0 mm 4 m/s 700 mmHg 57%
    14:00 +13°C° 0 mm 4 m/s 699 mmHg 57%
    15:00 +13°C° 0 mm 4 m/s 699 mmHg 56%
    16:00 +11°C° 0 mm 4 m/s 698 mmHg 64%
    17:00 +10°C° 0 mm 3 m/s 698 mmHg 71%
    18:00 +8°C° 0 mm 3 m/s 698 mmHg 79%
    19:00 +7°C° 0 mm 3 m/s 698 mmHg 83%
    20:00 +7°C° 0 mm 3 m/s 698 mmHg 88%
    21:00 +5°C° 0 mm 3 m/s 698 mmHg 93%
    22:00 +5°C° 0 mm 3 m/s 698 mmHg 93%
    23:00 +5°C° 0 mm 3 m/s 697 mmHg 93%

    26 Februarie, Marţi

    Timp Temperatura Precipitaţii Vânt Presiune Umiditate
    00:00 +5°C° 0 mm 3 m/s 697 mmHg 94%
    01:00 +5°C° 0 mm 3 m/s 697 mmHg 94%
    02:00 +5°C° 0 mm 3 m/s 697 mmHg 94%
    03:00 +5°C° 0 mm 3 m/s 697 mmHg 94%
    04:00 +5°C° 0 mm 3 m/s 697 mmHg 94%
    05:00 +4°C° 0 mm 3 m/s 696 mmHg 94%
    06:00 +4°C° 0 mm 3 m/s 696 mmHg 94%
    07:00 +5°C° 0 mm 3 m/s 697 mmHg 89%
    08:00 +6°C° 0 mm 4 m/s 697 mmHg 83%
    09:00 +7°C° 0 mm 4 m/s 697 mmHg 78%
    10:00 +8°C° 0 mm 4 m/s 698 mmHg 71%
    11:00 +11°C° 0 mm 4 m/s 698 mmHg 63%
    12:00 +12°C° 0 mm 4 m/s 698 mmHg 55%
    13:00 +12°C° 0 mm 4 m/s 698 mmHg 55%
    14:00 +13°C° 0 mm 4 m/s 697 mmHg 56%
    15:00 +13°C° 0 mm 3 m/s 697 mmHg 56%
    16:00 +11°C° 0 mm 3 m/s 697 mmHg 63%
    17:00 +9°C° 0 mm 3 m/s 697 mmHg 70%
    18:00 +8°C° 0 mm 3 m/s 696 mmHg 76%
    19:00 +7°C° 0 mm 3 m/s 696 mmHg 80%
    20:00 +5°C° 0 mm 3 m/s 697 mmHg 84%
    21:00 +4°C° 0 mm 3 m/s 697 mmHg 88%
    22:00 +4°C° 0 mm 3 m/s 697 mmHg 89%
    23:00 +3°C° 0 mm 3 m/s 697 mmHg 90%

    27 Februarie, Miercuri

    Timp Temperatura Precipitaţii Vânt Presiune Umiditate
    00:00 +3°C° 0 mm 3 m/s 697 mmHg 91%
    01:00 +3°C° 0 mm 3 m/s 697 mmHg 92%
    02:00 +3°C° 0 mm 3 m/s 697 mmHg 93%
    03:00 +3°C° 0 mm 3 m/s 696 mmHg 93%
    04:00 +3°C° 0 mm 3 m/s 696 mmHg 93%
    05:00 +3°C° 0 mm 3 m/s 696 mmHg 93%
    06:00 +3°C° 0 mm 3 m/s 696 mmHg 93%
    07:00 +4°C° 0 mm 3 m/s 697 mmHg 88%
    08:00 +5°C° 0 mm 3 m/s 698 mmHg 83%
    09:00 +8°C° 0 mm 3 m/s 698 mmHg 79%
    10:00 +9°C° 0 mm 3 m/s 698 mmHg 71%
    11:00 +11°C° 0 mm 3 m/s 699 mmHg 64%
    12:00 +13°C° 0 mm 3 m/s 699 mmHg 56%
    13:00 +13°C° 0 mm 3 m/s 698 mmHg 56%
    14:00 +13°C° 0 mm 3 m/s 698 mmHg 55%
    15:00 +13°C° 0 mm 3 m/s 698 mmHg 55%
    16:00 +13°C° 0 mm 2 m/s 697 mmHg 63%
    17:00 +10°C° 0 mm 2 m/s 697 mmHg 70%
    18:00 +9°C° 0 mm 2 m/s 697 mmHg 77%
    19:00 +7°C° 0 mm 2 m/s 697 mmHg 81%
    20:00 +6°C° 0 mm 2 m/s 697 mmHg 84%
    21:00 +5°C° 0 mm 2 m/s 697 mmHg 88%
    22:00 +5°C° 0 mm 2 m/s 697 mmHg 86%
    23:00 +5°C° 0 mm 2 m/s 697 mmHg 85%
    Arată mai mult